Temp
19 20 20 20 20 20 20 19 19 19 19 19 19 19 19 19 19 18 18 18 18 18 18 18 17 17 17 17 17 17 17 17 16 16 17 17 17 17 17 17 17 17 17 17 17 17 17 17 17 17 17 17 17 17 17 17 17 17 16 16 16 16 16 15 15 15 15 15 15
19 19 19 19 19 19 19 19 19 19 19 18 18 18 18 18 18 18 18 18 17 17 17 17 17 17 17 17 16 16 16 16 16 16 16 16 16 16 16 16 16 16 16 16 16 16 16 16 16 16 17 17 17 17 17 17 17 16 16 16 16 15 15 15 15 15 15 15 15
18 18 18 18 18 18 18 18 18 18 18 18 18 18 18 18 17 17 17 17 16 16 16 16 16 16 16 16 16 16 16 16 15 15 15 16 16 16 16 16 16 16 16 16 16 16 16 16 16 16 16 16 17 17 16 16 16 16 16 16 15 15 15 15 15 15 15 15 15
18 18 18 18 18 18 18 18 18 18 17 17 17 17 17 17 17 16 16 16 15 15 15 15 15 15 15 15 15 15 15 15 15 15 15 15 15 15 15 15 15 15 15 15 15 15 15 15 15 15 15 16 16 16 16 16 15 15 15 15 15 15 15 15 14 14 14 15 15
17 17 17 17 17 17 17 17 17 17 17 17 16 16 16 16 16 16 15 15 15 15 15 15 14 14 14 14 14 14 14 14 14 14 14 14 14 14 14 14 14 14 14 14 13 13 13 13 13 14 14 14 15 15 15 15 15 15 15 15 15 15 15 14 14 14 14 15 14
17 17 17 16 16 16 16 16 16 16 16 16 16 16 15 15 15 15 15 15 15 14 14 14 14 14 14 14 14 14 14 14 14 14 14 13 13 13 13 13 13 13 12 12 12 12 12 13 13 13 13 14 14 14 14 14 14 14 15 15 15 14 14 14 14 14 14 14 14
16 16 16 16 16 15 15 15 15 15 15 15 15 15 15 15 14 14 14 14 14 14 14 14 14 14 14 13 13 13 13 13 13 13 13 13 12 12 12 12 11 11 11 11 12 12 13 13 13 13 13 13 13 13 13 14 14 14 14 14 14 14 14 14 14 14 14 14 14
15 15 15 15 15 15 15 15 14 14 14 14 14 14 14 14 14 13 13 13 13 13 13 13 13 13 13 13 13 12 12 12 12 12 12 12 12 11 11 11 11 11 11 12 12 12 13 13 13 13 13 13 13 13 13 13 13 14 14 14 14 13 13 13 13 13 13 13 13
15 15 15 14 14 14 14 14 14 14 14 13 13 13 13 13 13 13 13 13 13 13 13 13 13 13 12 12 12 12 12 12 12 11 11 10 11 11 11 11 11 11 12 12 12 12 12 13 13 12 12 12 12 13 13 13 13 13 13 13 13 13 13 13 13 13 13 13 13
14 14 14 14 14 14 14 14 14 14 13 13 13 13 13 13 12 13 13 13 13 13 13 12 12 12 11 11 11 11 11 11 11 10 10 10 11 11 11 11 11 11 12 12 12 12 12 12 12 12 12 12 12 12 12 12 12 12 12 12 12 12 12 12 12 12 12 12 12
14 14 14 14 14 14 14 14 14 13 13 13 13 13 13 13 13 13 13 13 12 12 12 12 11 11 11 11 11 10 10 10 10 10 10 10 10 10 11 11 11 11 12 12 12 11 11 11 11 12 12 12 12 12 12 12 11 12 12 12 12 12 11 11 11 12 11 11 11
14 13 13 13 13 13 14 13 13 13 13 13 13 13 13 13 13 12 12 12 12 12 11 11 11 11 11 10 10 9 9 10 10 10 10 10 10 10 10 11 11 11 11 11 11 11 11 11 11 11 11 11 11 11 11 11 11 11 11 11 11 11 11 11 11 11 10 10 10
13 13 13 13 13 13 13 13 13 13 13 13 13 13 13 12 12 12 12 12 12 11 11 10 10 10 10 10 9 9 9 9 10 10 10 10 10 10 10 11 11 11 11 11 11 11 11 11 11 11 11 11 11 11 11 11 11 11 11 11 10 10 10 10 10 9 9 9 9
13 13 12 12 12 12 13 13 12 12 12 12 12 12 12 12 12 12 11 11 11 10 10 10 10 9 9 9 9 9 9 9 10 10 10 10 10 10 10 10 10 10 11 11 11 11 10 10 10 10 10 10 10 10 10 10 10 10 10 10 10 10 9 9 9 9 9 9 9
12 12 12 12 12 12 12 12 12 12 12 12 12 12 12 11 11 11 11 10 10 9 9 9 9 9 9 9 9 9 9 9 9 9 9 9 9 9 10 10 10 10 10 10 10 10 10 10 10 10 10 10 10 10 10 10 10 10 10 10 9 9 9 9 9 9 9 9 9
12 12 12 12 12 12 12 12 12 12 12 11 11 11 11 11 10 10 10 9 9 9 8 8 8 8 9 9 9 9 9 9 9 9 9 9 9 9 9 9 9 9 9 9 9 9 9 9 9 9 9 9 9 9 9 9 9 9 9 9 9 9 8 8 8 8 9 9 9
12 11 11 11 11 11 11 11 11 11 11 11 11 11 10 10 10 9 9 9 8 8 8 8 8 8 9 9 9 9 8 8 8 8 8 8 8 8 8 9 9 9 9 9 9 9 8 8 8 8 8 8 8 8 8 8 8 8 8 8 8 8 8 8 8 8 8 8 8
11 11 11 11 11 11 11 11 11 11 10 10 10 10 10 9 9 9 8 8 8 8 8 8 8 8 9 8 8 8 8 8 8 8 8 8 8 8 8 8 8 8 8 8 8 8 8 8 8 7 7 7 7 7 7 7 7 7 7 7 7 7 7 7 8 8 8 8 8
11 11 11 11 11 11 11 11 10 10 10 10 9 9 9 9 8 8 8 7 7 8 8 8 8 8 8 8 8 8 8 8 8 8 8 8 8 8 8 8 8 8 8 7 7 7 7 7 7 7 6 6 6 6 6 6 6 6 6 7 7 7 7 7 7 7 7 7 7
11 10 10 10 10 10 10 10 10 10 9 9 9 9 8 8 8 8 7 7 7 7 7 7 7 7 7 8 8 8 8 8 7 7 7 7 7 7 7 7 7 7 7 7 7 6 6 6 6 6 6 6 6 6 6 6 6 6 6 6 6 6 6 6 6 6 6 6 6
10 10 10 10 10 10 10 10 10 9 9 9 9 8 8 8 7 7 7 7 7 7 7 7 7 7 7 7 7 7 7 7 7 7 7 7 7 6 6 6 6 6 6 6 6 6 5 5 5 5 5 5 5 5 5 5 5 5 5 5 5 5 5 5 5 5 5 5 5
10 10 10 10 10 10 10 10 9 9 9 8 8 8 8 8 7 7 7 7 7 7 7 7 7 6 6 6 6 7 7 6 6 6 6 6 6 6 6 6 6 6 5 5 5 5 4 4 4 4 4 4 4 5 5 5 5 4 4 4 4 4 4 4 4 4 4 4 4
10 10 10 10 10 9 9 9 9 9 8 8 8 8 8 7 7 7 7 7 7 7 7 7 6 6 6 6 6 6 6 6 6 6 6 6 6 5 5 5 5 5 4 4 4 4 4 4 3 3 4 4 4 4 4 4 4 4 4 4 3 3 3 3 3 3 3 3 3
10 9 9 9 9 9 9 9 8 8 8 8 8 7 7 7 7 7 7 7 7 7 6 6 6 6 6 6 6 6 6 6 5 5 5 5 5 4 4 4 4 4 3 3 3 3 3 3 3 3 3 3 4 4 3 3 3 3 3 3 3 3 3 3 3 3 2 2 2
9 9 9 9 9 9 8 8 8 8 8 7 7 7 7 7 7 7 6 6 6 6 5 5 5 5 5 5 5 5 5 5 5 4 4 4 4 4 3 3 3 3 3 3 3 3 3 3 3 3 3 3 3 3 3 3 3 3 3 3 2 2 2 2 2 2 2 2 2
9 9 9 8 8 8 8 8 8 7 7 7 7 6 6 6 6 6 6 6 5 5 5 5 4 4 4 4 4 4 4 4 4 4 3 3 3 3 3 3 3 3 3 3 3 2 2 2 2 3 3 3 3 3 3 2 2 2 2 2 2 2 2 2 2 2 2 2 2
8 8 8 8 8 8 7 7 7 7 7 6 6 6 6 6 6 5 5 5 5 5 4 4 4 4 4 4 4 4 4 4 3 3 3 3 3 3 3 3 3 3 3 2 2 2 2 2 2 2 2 2 2 2 2 2 2 2 2 2 2 2 2 2 2 2 2 2 2
8 8 8 8 7 7 7 7 7 6 6 6 6 6 5 5 5 5 5 5 4 4 4 4 4 4 4 4 3 3 3 3 3 3 3 3 3 2 2 2 2 3 2 2 2 2 2 2 2 2 2 2 2 2 2 2 2 2 2 2 2 2 2 2 1 1 1 2 2
8 8 7 7 7 7 7 6 6 6 6 6 6 5 5 5 4 4 4 4 4 4 4 4 4 3 3 3 3 3 3 3 3 3 3 3 2 2 2 2 2 3 2 2 2 2 2 2 2 2 2 2 2 2 2 2 2 2 2 1 2 2 1 1 1 1 1 1 1
8 7 7 7 7 6 6 6 6 6 6 5 5 5 5 4 4 4 3 3 3 3 3 3 3 3 3 3 3 3 3 3 3 2 2 2 2 2 2 2 2 2 2 2 2 2 2 2 2 2 2 1 2 2 2 2 1 1 1 1 1 1 1 1 1 1 1 1 1
7 7 7 7 6 6 6 6 6 6 5 5 5 5 4 4 3 3 3 3 3 3 3 3 3 3 3 3 3 3 3 2 2 2 2 2 2 2 2 2 2 2 2 2 2 2 2 2 2 1 1 1 1 1 1 1 1 1 1 1 1 1 1 1 1 1 1 1 1
7 7 6 6 6 6 6 6 6 5 5 5 5 4 4 4 3 3 3 3 3 3 3 3 3 3 3 3 3 2 2 2 2 2 2 2 1 1 2 2 2 2 2 2 2 2 2 2 1 1 1 1 1 1 1 1 1 1 1 1 1 1 1 1 1 1 1 1 1
6 6 6 6 5 5 5 5 5 5 5 5 4 4 4 3 3 3 3 3 3 3 3 3 3 3 2 2 2 2 2 2 2 2 2 2 1 1 1 2 2 2 2 2 2 2 1 1 1 1 1 1 1 1 1 1 1 1 1 1 1 1 1 1 1 1 1 1 1
6 5 5 5 5 5 5 5 5 4 4 4 4 4 4 3 3 3 3 3 3 3 3 2 2 2 2 2 2 2 2 2 2 2 2 2 2 1 1 1 1 1 2 2 2 1 1 1 1 1 1 1 1 1 1 1 1 1 1 1 1 1 1 1 1 1 1 1 1
5 5 5 4 4 4 4 4 4 4 4 4 4 4 3 3 3 3 3 2 2 2 2 2 2 2 2 2 2 2 2 2 2 2 2 2 2 1 1 1 1 1 2 1 1 1 1 0 0 0 1 1 1 1 1 1 1 1 1 1 1 1 1 1 1 1 1 1 1
5 4 4 4 4 4 4 4 4 4 4 3 3 3 3 3 3 3 2 2 2 2 2 2 2 2 2 2 2 2 2 2 2 2 2 2 2 1 1 1 1 1 1 1 1 1 0 0 0 0 0 0 1 1 1 1 1 1 1 1 1 1 1 1 1 1 1 1 1
4 4 4 4 4 4 3 3 3 3 3 3 3 3 3 3 2 2 2 2 2 2 2 2 2 2 2 2 2 2 2 2 2 2 2 2 1 1 1 1 1 1 1 1 0 0 0 -0 -0 -0 0 0 0 1 1 1 1 1 1 1 1 1 1 1 1 1 1 1 0
4 4 4 4 4 3 3 3 3 3 3 3 3 3 3 3 2 2 2 2 2 2 2 2 2 2 2 2 2 2 2 2 2 1 1 1 1 1 1 1 1 1 1 0 0 -0 -0 -0 -0 -0 -0 0 0 0 0 0 0 1 1 1 1 1 1 1 1 1 0 0 0
4 4 4 4 4 3 3 3 3 3 3 3 3 2 2 2 2 2 2 2 2 2 2 2 2 2 2 2 2 2 1 1 1 1 1 1 1 1 1 1 1 1 0 0 -0 -0 -0 -0 -0 -0 -0 0 0 0 0 0 0 0 0 0 0 0 0 0 0 0 0 0 0
4 4 4 4 3 3 3 3 3 3 3 3 2 2 2 2 2 2 2 2 2 2 2 2 2 2 2 2 2 1 1 1 1 1 1 1 1 1 1 1 1 0 -0 -0 -0 -0 -0 -0 -0 -0 -0 -0 -0 -0 -0 -0 -0 -0 -0 -0 -0 -0 -0 -0 -0 0 0 0 -0
4 4 4 3 3 3 3 3 3 3 3 2 2 2 2 2 2 2 1 1 1 1 2 2 1 1 1 1 1 1 1 1 1 1 1 1 1 1 1 1 0 -0 -0 -0 -0 -0 -0 -0 -0 -0 -0 -0 -0 -0 -0 -0 -0 -0 -0 -0 -1 -1 -1 -1 -0 -0 -0 -0 -0
Height
798 799 799 799 800 800 801 802 802 803 804 804 805 806 807 807 808 809 810 810 811 812 812 812 813 813 813 814 814 814 815 815 815 816 816 816 816 817 817 817 817 818 818 818 819 819 819 820 820 819 819 820 820 820 820 821 821 821 821 821 822 822 823 823 824 824 824 825 825
797 797 798 798 799 799 800 800 801 802 803 804 804 805 806 807 808 808 809 810 810 811 811 811 812 812 812 813 813 814 814 814 814 815 815 815 815 815 815 816 816 816 817 817 817 818 818 818 818 818 818 819 819 819 819 819 820 820 820 820 820 821 821 822 822 822 823 824 824
795 796 796 797 798 799 799 800 800 801 802 803 804 804 805 806 807 808 808 809 809 809 810 811 811 811 812 812 812 813 813 814 814 814 814 814 814 814 814 814 815 815 815 815 816 816 817 817 817 817 817 817 818 818 818 819 819 819 819 819 819 820 820 820 821 821 822 823 823
795 795 796 796 797 798 799 799 800 801 801 802 803 804 804 805 806 807 807 808 808 809 809 809 810 810 810 811 811 812 812 812 813 813 813 813 813 813 813 813 813 814 814 814 814 815 815 815 816 816 816 816 816 817 817 817 818 818 818 819 819 819 819 819 820 820 821 821 821
794 795 795 796 797 798 798 799 799 800 801 801 802 803 804 804 805 806 806 807 807 808 808 809 809 809 809 810 810 811 811 811 811 812 812 812 812 812 812 812 812 813 813 813 813 814 814 814 815 815 815 815 815 816 816 816 817 817 818 818 818 818 818 819 819 819 820 820 820
794 794 795 796 796 797 798 798 799 799 800 801 802 803 803 804 805 805 806 806 807 807 808 808 808 809 809 809 810 810 810 810 810 810 810 811 811 811 811 811 812 812 812 813 813 813 814 814 814 814 814 815 815 815 815 816 816 816 817 817 817 817 818 818 818 818 818 819 819
793 794 794 795 796 796 797 798 798 799 800 801 802 802 803 804 804 805 805 805 806 807 807 808 808 808 809 809 809 809 809 809 809 809 810 810 810 810 811 811 811 812 812 812 812 813 813 814 814 814 814 814 814 814 814 815 815 816 816 816 816 817 817 817 817 817 817 817 818
792 793 794 794 795 796 796 797 798 799 800 801 802 802 803 803 804 804 804 805 805 806 807 807 808 808 808 808 808 808 808 808 809 809 809 809 810 810 811 811 811 811 811 812 812 812 813 813 813 813 813 814 814 814 814 814 814 815 815 815 815 816 816 816 816 816 816 817 817
792 793 793 794 795 795 796 797 798 799 799 800 801 802 802 803 803 804 804 804 805 805 806 807 807 807 807 807 808 808 808 808 808 809 809 809 810 810 810 810 811 811 811 811 812 812 812 812 812 813 813 813 813 813 814 814 814 814 814 815 815 815 815 815 815 815 815 816 816
791 792 793 794 794 795 796 796 797 798 798 799 800 800 801 802 802 803 804 804 804 805 806 806 806 806 807 807 807 807 807 808 808 809 809 809 809 810 810 810 810 810 811 811 811 811 811 812 812 812 812 812 813 813 813 813 814 814 814 814 814 814 814 814 815 815 815 815 816
791 792 792 793 794 794 795 795 796 797 798 798 799 800 800 801 802 803 803 804 804 805 805 805 805 806 806 806 806 807 807 808 808 808 809 809 809 809 809 809 810 810 810 811 811 811 811 811 811 812 812 812 812 812 813 813 813 813 814 814 814 814 814 814 814 814 814 815 815
791 791 792 793 793 794 794 795 796 796 797 798 799 799 800 801 802 802 803 804 804 804 804 805 805 805 805 806 806 806 807 807 808 808 808 809 809 809 809 809 809 809 810 810 810 811 811 811 811 811 811 812 812 812 812 813 813 813 813 813 814 814 814 814 814 814 814 814 814
790 791 792 793 793 794 794 795 795 796 797 798 799 799 800 801 802 802 803 803 803 804 804 804 804 805 805 806 806 806 807 807 807 808 808 808 809 809 809 809 809 809 809 810 810 810 811 811 811 811 811 811 812 812 812 812 812 812 813 813 813 813 814 814 814 814 814 814 814
790 791 792 792 793 793 794 794 795 796 797 798 799 799 800 801 801 802 802 803 803 803 804 804 804 804 805 805 806 806 807 807 807 808 808 808 808 808 809 809 809 809 809 809 810 810 810 811 811 811 811 811 812 812 812 812 812 812 812 813 813 813 813 814 814 814 814 814 814
790 791 791 792 793 793 794 794 795 796 797 797 798 799 800 800 801 801 802 802 803 803 803 804 804 804 805 806 806 806 807 807 807 807 807 808 808 808 808 808 809 809 809 809 809 809 810 810 810 811 811 811 811 812 812 812 812 812 812 813 813 813 813 814 814 814 814 814 814
789 790 791 792 792 793 794 794 795 796 797 797 798 799 799 800 801 801 802 802 802 803 803 804 804 804 805 806 806 807 807 807 807 807 807 807 807 807 808 808 808 808 808 809 809 809 809 809 810 810 810 810 811 811 811 812 812 812 812 812 813 813 813 814 814 814 814 814 814
789 790 791 791 792 793 793 794 795 796 796 797 798 799 799 800 800 801 801 802 802 803 803 804 804 805 805 805 806 806 807 807 807 806 806 806 806 807 807 807 808 808 808 808 808 808 809 809 809 809 809 810 810 810 811 811 811 812 812 812 812 813 813 813 813 813 814 814 814
789 789 790 791 792 792 793 794 795 796 796 797 798 799 799 800 800 801 801 802 802 803 803 804 804 804 805 805 805 806 806 806 806 806 806 806 806 806 807 807 807 807 807 807 807 807 808 808 808 808 809 809 809 809 810 810 810 811 811 811 812 812 812 813 813 813 813 813 814
788 789 790 791 791 792 793 794 795 795 796 797 798 798 799 799 800 801 801 802 802 803 803 804 804 804 804 805 805 805 805 805 805 805 806 806 806 806 806 806 806 806 806 806 806 807 807 807 807 808 808 808 809 809 809 809 810 810 810 811 811 811 812 812 812 812 813 813 813
788 789 789 790 791 792 793 794 794 795 796 797 797 798 799 799 800 800 801 801 802 802 803 803 804 804 804 804 804 804 805 805 805 805 805 805 806 806 806 806 806 806 806 806 806 806 806 806 807 807 807 808 808 808 809 809 809 810 810 810 810 811 811 811 812 812 812 813 813
788 789 789 790 791 792 793 794 794 795 796 796 797 798 798 799 799 800 800 801 801 802 802 803 803 803 803 804 804 804 804 804 804 805 805 805 805 805 805 805 805 805 805 805 805 805 805 806 806 806 807 807 808 808 808 809 809 809 809 810 810 810 810 811 811 811 812 812 813
787 788 789 790 791 791 792 793 794 794 795 796 796 797 798 798 799 799 800 800 801 801 802 802 803 803 803 803 803 803 804 804 804 804 804 804 804 804 804 804 804 804 804 804 805 805 805 805 805 806 806 807 807 807 808 808 808 809 809 809 809 809 810 810 810 811 811 812 813
787 788 789 789 790 791 792 793 793 794 795 795 796 796 797 798 798 799 799 800 800 801 801 802 802 802 802 802 802 803 803 803 803 803 803 803 804 804 804 804 804 804 804 804 804 804 804 804 805 805 805 806 806 807 807 807 808 808 808 809 809 809 809 810 810 811 811 812 812
787 787 788 789 790 790 791 792 793 794 794 795 795 796 796 797 798 798 799 799 800 800 801 801 801 801 801 801 802 802 802 802 802 803 803 803 803 803 803 803 803 803 803 804 804 804 804 804 804 805 805 805 806 806 806 807 807 807 808 808 809 809 809 810 810 811 811 811 812
786 787 788 789 789 790 791 792 792 793 794 794 795 795 796 796 797 798 798 799 799 800 800 800 801 801 801 801 801 801 801 801 802 802 802 802 802 802 802 803 803 803 803 803 803 804 804 804 804 804 804 805 805 805 806 806 807 807 808 808 809 809 810 810 811 811 811 811 812
786 787 788 788 789 790 790 791 792 792 793 794 794 794 795 796 796 797 798 798 799 799 799 799 800 800 800 800 800 800 800 801 801 801 801 801 801 802 802 802 802 802 802 803 803 803 803 804 804 804 804 804 804 805 805 806 807 807 808 808 809 809 809 809 810 810 810 811 812
786 787 787 788 789 789 790 791 791 792 792 793 793 794 794 795 795 796 797 797 798 798 798 799 799 799 799 799 799 800 800 800 800 800 800 800 801 801 801 801 801 801 802 802 802 803 803 804 804 804 804 804 804 805 805 806 807 807 808 808 809 809 809 809 809 810 811 812 812
785 786 787 788 788 789 789 790 791 791 792 792 793 793 794 794 795 795 796 796 797 797 798 798 798 798 799 799 799 799 799 799 800 800 800 800 800 800 800 800 800 801 801 801 802 802 803 803 804 804 804 804 804 805 805 806 806 807 808 808 808 809 809 809 809 810 811 812 812
785 786 786 787 788 788 789 789 790 791 791 791 792 792 793 793 794 794 795 796 796 796 796 797 797 798 798 798 799 799 799 799 799 799 799 799 799 800 800 800 800 800 801 801 801 802 803 803 803 804 804 804 804 804 805 805 806 807 807 808 808 809 809 809 810 810 811 812 812
784 785 786 786 787 788 788 789 789 790 790 791 791 792 792 793 793 794 794 795 795 795 796 796 797 797 798 798 798 798 798 799 799 799 799 799 799 799 799 799 800 800 800 801 801 802 802 803 803 803 804 804 804 804 805 805 806 807 807 808 809 809 809 810 810 811 811 812 813
784 784 785 786 786 787 788 788 789 789 790 790 791 791 791 792 792 793 794 794 795 795 795 796 796 797 797 797 797 798 798 798 798 798 798 799 799 799 799 799 799 800 800 801 801 802 802 803 803 803 803 803 804 804 805 805 806 807 808 808 809 809 810 810 811 811 812 812 813
783 784 784 785 786 786 787 787 788 789 789 790 790 790 791 791 792 792 793 794 794 794 795 795 795 796 796 796 797 797 797 797 798 798 798 798 798 799 799 799 799 799 800 801 801 802 802 802 803 803 803 803 804 804 805 806 807 807 808 809 809 810 810 811 811 812 812 813 813
782 783 784 784 785 785 786 787 787 788 789 789 789 790 790 791 791 792 793 793 794 794 794 794 795 795 795 796 796 796 797 797 797 798 798 798 798 798 799 799 799 799 800 801 801 802 802 802 802 802 803 803 804 804 805 806 807 807 808 809 809 810 811 811 812 812 812 813 813
781 782 783 784 784 785 785 786 787 787 788 788 789 789 790 790 791 791 792 793 793 794 794 794 794 794 795 795 796 796 796 797 797 797 798 798 798 798 799 799 799 799 800 801 801 801 802 802 802 802 803 804 804 804 805 806 806 807 808 809 809 810 811 811 812 812 813 813 813
780 781 782 783 784 784 785 785 786 786 787 788 788 789 789 790 790 791 791 792 792 793 793 794 794 794 794 795 795 796 796 797 797 797 797 798 798 798 798 799 799 800 800 801 801 801 801 802 802 802 803 804 804 804 805 806 806 807 808 809 809 810 810 811 812 812 813 813 814
779 780 781 782 783 784 784 784 785 785 786 787 787 788 789 789 789 790 791 791 792 792 793 793 794 794 794 795 795 796 796 796 797 797 797 797 798 798 798 799 799 800 800 800 801 801 801 802 802 802 803 804 804 805 805 806 807 807 808 809 809 810 810 811 811 812 813 813 813
779 779 780 781 782 783 783 784 784 784 785 786 786 787 788 788 789 789 790 791 791 792 792 793 793 794 794 794 795 795 796 796 796 797 797 797 798 798 798 799 799 799 800 800 800 801 801 802 802 803 803 804 804 805 805 806 807 807 808 809 809 810 810 811 811 812 812 813 813
778 779 779 780 781 782 782 783 783 784 784 785 785 786 787 788 788 789 790 790 791 791 792 792 793 793 793 794 794 795 795 796 796 797 797 797 797 798 798 799 799 799 800 800 801 801 802 802 803 803 803 804 804 805 805 806 807 807 808 809 809 810 810 811 811 812 812 813 813
777 778 779 779 780 781 781 782 782 783 783 784 784 785 786 787 788 789 789 790 790 791 791 791 792 792 793 793 794 794 795 795 796 796 797 797 797 798 798 798 799 799 800 800 801 801 802 802 803 803 804 804 804 805 806 806 807 807 808 809 809 810 810 811 811 812 812 813 813
776 777 778 779 779 780 780 781 781 782 782 783 784 784 785 786 787 788 789 789 790 790 790 790 791 792 792 793 794 794 794 795 796 796 797 797 797 798 798 798 799 799 800 801 801 802 802 803 803 804 804 804 805 805 806 806 806 807 808 809 809 809 810 811 811 812 812 813 814
775 776 777 778 778 779 779 780 780 781 782 782 783 784 784 785 787 788 789 789 789 789 789 790 790 791 792 793 793 794 794 795 796 796 797 797 797 798 798 798 799 799 800 801 801 802 803 803 804 804 804 805 805 805 806 806 806 807 808 808 809 809 810 810 811 812 812 813 813
Wind_Speed
18 19 19 19 19 19 18 18 18 18 18 17 17 17 17 16 15 15 14 13 13 12 12 13 14 14 15 15 15 15 15 16 16 16 16 16 17 17 18 18 18 17 17 16 16 15 14 14 14 15 16 16 16 15 15 15 16 16 16 16 16 16 16 15 15 14 14 15 17
19 19 19 19 19 19 18 18 17 17 16 15 15 15 15 14 13 12 12 11 11 12 12 13 14 14 15 15 15 15 16 16 16 16 17 17 18 18 18 18 18 18 18 18 18 17 16 15 16 17 18 18 18 17 16 16 16 16 16 16 16 16 16 15 15 15 15 16 19
18 18 18 18 18 18 17 17 17 16 15 14 14 13 13 12 11 11 10 10 10 11 11 12 12 13 14 15 16 16 16 16 17 17 18 18 18 18 18 18 18 18 18 18 18 18 17 17 18 18 19 20 19 19 18 17 16 16 16 16 16 16 15 15 15 15 16 18 20
16 16 16 16 16 16 16 16 16 15 15 14 13 12 11 11 11 11 11 11 11 11 11 11 11 12 13 14 15 15 16 16 16 17 17 18 18 17 17 16 16 15 14 14 14 15 16 17 18 19 20 20 20 19 19 18 17 16 15 15 15 15 15 15 15 16 18 20 21
14 14 14 14 13 13 13 13 13 13 13 13 12 12 11 12 12 12 12 12 12 12 12 12 11 11 12 13 13 13 13 14 14 14 15 15 14 13 11 9 8 7 7 8 9 10 11 12 13 15 16 18 19 19 19 19 17 16 15 15 15 15 15 16 17 19 21 21 20
12 12 12 11 12 11 11 11 11 11 11 12 12 12 12 12 12 12 12 11 12 12 12 12 12 11 11 11 11 11 11 11 10 10 9 8 6 5 4 4 5 6 7 7 7 7 7 7 8 9 11 12 14 15 16 17 16 15 15 15 15 16 17 18 19 21 21 20 18
13 13 13 13 13 12 12 11 11 10 10 10 10 10 10 11 11 11 11 11 12 11 11 11 11 11 10 10 9 9 9 8 7 5 4 3 2 3 3 4 5 5 5 5 4 4 5 6 7 8 9 10 11 12 12 13 13 14 14 15 16 18 19 19 21 21 19 17 16
15 15 14 14 14 13 13 12 11 11 10 9 9 9 9 9 10 10 10 11 10 10 9 9 9 9 8 8 7 7 6 5 3 2 2 2 2 2 3 4 4 3 3 3 3 4 5 6 8 9 10 10 11 11 12 12 13 14 15 16 17 18 19 19 19 18 17 15 14
16 15 15 15 14 14 13 12 12 12 12 12 11 11 10 10 10 10 10 9 9 8 7 7 6 6 5 4 4 5 5 4 1 1 1 1 1 1 1 2 2 2 2 2 4 5 5 6 7 8 9 9 10 11 11 12 13 13 14 15 16 16 17 17 16 16 15 14 13
16 16 15 15 14 14 14 14 14 14 14 14 13 13 12 11 11 10 9 8 8 7 6 5 4 4 3 4 4 4 3 1 2 2 2 1 1 2 2 2 2 1 2 2 4 4 4 5 6 7 7 8 9 9 10 11 11 12 12 13 14 14 14 14 14 13 13 13 13
16 15 15 15 15 15 15 15 14 14 14 14 14 13 13 12 11 10 9 8 7 6 5 4 4 4 4 4 4 3 1 2 3 4 4 3 4 4 4 3 2 2 2 3 4 4 4 4 5 6 6 7 7 8 9 10 10 10 11 11 12 12 12 12 12 12 12 12 12
15 15 15 15 15 14 14 14 14 14 13 13 13 12 12 11 10 9 8 7 7 6 5 4 4 4 4 3 3 3 3 4 4 5 5 5 5 5 4 4 3 3 3 4 4 4 4 4 5 5 6 6 7 7 8 8 8 9 9 10 10 11 11 11 11 10 10 10 10
14 14 14 14 13 13 13 13 13 12 12 11 11 10 10 9 9 8 7 7 6 6 5 5 5 5 4 3 4 4 5 5 5 6 6 5 5 5 5 5 5 4 4 4 4 3 3 3 4 4 5 5 6 6 7 7 7 8 8 9 9 10 10 10 9 9 9 8 8
14 14 13 13 12 12 11 11 11 10 10 9 9 8 8 8 7 7 6 5 5 4 5 5 5 5 4 5 5 5 5 5 5 6 5 5 5 5 5 5 5 5 5 4 4 4 4 4 4 5 5 5 6 6 6 6 6 7 7 8 8 9 9 9 9 8 8 8 7
13 13 13 12 11 10 10 9 9 8 7 7 6 6 6 6 5 5 5 4 3 3 4 4 5 5 6 6 6 6 6 5 5 5 5 5 5 5 5 6 5 5 6 6 6 6 6 6 6 6 6 6 6 6 6 6 6 7 7 8 8 9 9 9 8 8 7 7 6
13 13 12 12 11 10 9 9 8 7 6 5 4 4 4 4 4 4 4 3 3 3 3 4 5 6 7 7 7 6 6 5 5 5 5 6 6 6 7 7 7 7 7 8 8 8 8 8 8 8 7 7 7 7 6 6 7 7 8 8 8 9 9 8 8 7 7 6 6
14 13 12 12 11 10 9 8 7 6 5 5 4 3 3 4 4 4 3 3 3 3 4 5 6 7 8 8 7 7 6 6 7 7 7 7 7 8 8 7 7 8 8 9 9 9 9 9 8 8 8 8 7 7 7 7 7 8 8 9 9 9 9 9 8 7 7 6 6
14 13 13 12 11 10 9 8 7 7 6 5 4 4 3 3 3 3 3 3 4 4 5 6 7 7 8 8 8 8 8 8 8 8 8 8 8 8 8 8 7 8 8 9 9 9 9 8 7 7 7 7 7 7 7 8 8 9 9 10 10 10 10 9 9 8 7 7 8
15 14 13 12 11 10 9 9 8 7 7 6 5 5 4 4 4 4 5 6 6 5 5 5 6 7 7 8 8 9 9 9 9 8 8 8 8 8 8 8 8 8 8 8 8 8 8 7 6 6 7 7 7 8 8 9 9 10 10 10 10 10 10 9 9 8 8 8 9
15 14 13 12 11 10 9 9 9 8 7 6 6 6 6 5 5 5 7 8 7 7 6 5 5 6 7 7 8 8 9 9 9 9 8 8 8 8 8 8 8 8 8 8 8 8 7 7 7 6 7 8 8 9 9 10 10 10 10 10 9 9 9 9 9 8 8 9 10
15 15 14 13 11 10 10 9 9 8 8 7 7 7 7 7 7 7 8 9 8 8 7 6 6 6 6 7 8 8 8 9 9 8 8 8 8 8 9 9 9 9 8 8 8 8 7 7 7 7 7 8 9 9 10 10 10 10 9 9 9 9 9 9 8 8 9 10 10
15 14 13 12 11 10 10 9 9 8 8 8 8 8 8 8 8 9 9 9 9 8 8 7 6 6 6 7 8 8 8 8 8 8 8 8 8 9 9 9 9 9 8 8 8 7 7 7 7 7 8 8 9 9 10 9 9 9 9 9 8 8 8 8 8 9 10 11 11
15 14 13 12 11 11 10 10 9 9 9 8 8 8 8 8 8 9 9 8 8 8 8 7 7 7 7 8 8 8 8 8 8 8 8 9 9 9 9 8 8 8 7 7 7 7 8 8 8 8 8 9 9 9 9 9 9 9 9 9 8 8 8 9 11 12 13 13 13
15 14 13 12 12 11 10 10 10 10 9 9 8 8 8 8 8 8 7 7 6 6 6 7 8 8 8 9 9 9 9 9 9 9 9 9 9 9 9 8 7 6 6 6 6 7 8 9 9 9 9 9 10 10 9 9 9 9 9 9 10 11 12 13 14 14 14 14 13
14 14 13 13 12 11 11 10 10 10 9 8 8 7 7 7 7 7 6 6 5 5 6 7 8 9 9 9 10 10 10 10 10 11 10 10 9 9 8 7 6 6 5 5 6 7 8 9 9 10 10 10 10 10 10 9 9 10 11 12 13 15 15 15 14 13 12 12 13
14 14 13 13 12 11 11 10 10 9 8 8 7 7 7 7 6 6 5 5 5 6 7 7 8 9 9 10 10 10 10 11 11 11 10 9 8 7 7 6 6 6 5 5 6 7 8 8 9 10 11 11 11 11 11 11 12 12 13 15 16 16 16 15 14 13 12 12 11
14 14 14 13 12 12 11 10 9 9 8 8 7 7 7 6 6 5 5 5 5 6 7 8 9 9 9 9 9 9 10 10 11 10 8 7 6 6 6 6 6 6 5 5 6 7 8 8 9 10 11 12 12 12 13 14 14 15 15 16 16 17 16 16 15 14 13 13 13
15 14 14 13 13 12 11 11 10 9 8 8 7 7 6 6 5 5 5 5 6 7 8 9 9 10 10 9 9 9 9 10 9 9 7 6 6 6 6 7 7 6 5 4 6 8 9 9 10 11 12 13 13 14 14 15 15 16 16 16 16 16 16 16 16 16 15 15 15
16 15 14 13 13 12 12 11 10 9 8 7 7 6 5 5 5 4 4 5 7 8 9 9 10 10 10 9 9 9 10 9 9 8 7 6 7 7 7 7 6 5 3 5 8 9 10 10 10 11 12 13 14 15 15 16 16 16 16 16 16 16 16 16 16 16 16 16 16
16 15 14 14 13 12 11 11 10 9 8 7 6 5 5 5 5 4 4 6 7 8 9 9 10 9 9 9 9 9 9 9 8 7 7 7 7 7 7 7 5 4 4 7 9 10 11 11 11 11 12 14 15 15 16 16 16 15 15 14 14 14 14 15 15 15 16 16 15
16 15 15 14 13 12 11 10 9 8 8 7 6 6 6 5 5 4 5 7 8 9 9 9 9 9 9 9 8 8 8 8 7 7 6 7 7 7 6 5 4 5 7 9 10 11 11 11 11 12 13 14 15 15 15 15 15 14 13 13 12 13 13 13 14 14 14 14 14
16 15 15 14 12 11 10 9 8 8 8 8 7 7 7 6 5 4 5 7 8 9 9 9 9 9 8 8 8 8 7 7 6 6 6 7 7 6 5 5 5 8 10 10 11 11 12 12 12 12 13 14 15 15 15 15 14 13 12 12 11 11 12 12 12 12 12 12 12
16 15 14 13 12 11 10 9 8 9 9 9 8 8 7 7 5 5 5 7 8 9 9 9 8 8 8 8 7 7 7 7 7 7 7 7 7 7 6 6 8 10 11 11 12 12 12 12 12 12 13 14 15 16 16 16 15 15 14 13 13 12 12 11 11 11 10 10 11
16 15 14 13 12 11 10 9 9 10 10 10 9 9 8 7 6 5 6 7 8 9 9 8 8 7 7 7 7 7 7 7 8 8 8 8 8 7 7 8 10 11 12 12 12 12 12 12 12 13 13 15 16 16 17 17 17 17 16 16 15 14 14 13 12 11 11 11 11
16 15 14 13 12 12 11 10 11 11 11 11 10 9 8 7 6 6 7 8 9 9 9 8 8 7 7 7 7 8 8 8 8 9 9 9 9 9 9 10 11 11 12 12 12 12 12 11 12 12 14 15 16 17 18 18 18 18 18 17 17 16 16 15 14 13 12 11 11
17 16 15 14 13 12 12 12 12 12 12 12 11 10 9 8 7 7 8 9 9 9 9 8 8 8 8 8 9 9 9 9 9 9 9 9 10 10 11 11 12 12 12 12 12 12 11 11 11 12 14 16 17 18 18 18 18 18 18 18 17 17 16 16 15 14 13 12 11
17 16 15 15 14 14 13 13 13 13 13 13 12 11 10 9 8 8 9 10 10 10 9 9 9 10 10 10 10 10 9 9 9 9 10 10 11 11 12 12 12 12 12 12 12 11 11 11 12 13 15 16 17 17 17 17 17 17 17 17 17 17 16 16 15 14 13 12 11
17 17 16 15 15 14 14 14 14 14 14 14 12 11 10 10 9 10 10 10 10 10 10 10 11 11 12 11 11 10 9 9 9 9 10 10 11 12 13 13 13 12 12 11 11 11 12 12 13 14 15 16 16 16 16 16 16 16 16 16 15 15 15 15 14 14 13 12 12
18 17 16 16 15 15 15 15 15 15 15 14 13 12 11 10 10 11 11 11 11 11 11 12 13 13 13 12 12 11 10 9 9 9 10 10 11 12 13 14 14 13 12 11 11 12 12 13 13 13 14 14 14 15 15 15 15 15 14 14 14 13 13 13 12 12 12 12 12
18 17 17 16 16 16 15 15 16 15 15 15 14 13 12 12 12 12 12 12 11 12 13 13 13 13 13 13 12 12 11 10 10 10 10 10 11 12 13 14 13 12 11 11 11 12 13 12 12 12 13 13 13 14 14 14 14 14 13 13 13 12 11 10 10 11 12 13 13
18 18 17 17 16 16 16 16 16 16 15 15 15 14 13 12 12 13 13 13 13 13 13 14 14 13 13 13 12 12 11 11 10 10 10 10 11 12 13 13 13 12 11 11 12 12 13 12 11 11 12 13 13 13 13 13 13 14 13 13 12 12 11 9 9 9 11 13 13
Wind_Direction
212 212 211 209 208 207 205 203 200 199 199 200 200 201 203 204 205 208 211 215 216 217 218 219 221 224 227 229 230 231 233 236 239 242 245 247 248 249 249 248 246 243 240 238 237 235 234 235 239 241 240 240 240 239 238 236 231 226 223 223 225 226 229 232 237 242 247 249 250
210 210 209 208 207 207 207 206 205 203 203 205 206 209 211 213 214 216 218 219 218 218 219 220 223 225 227 229 231 233 236 239 243 247 250 252 254 255 255 254 252 250 248 245 243 240 238 238 239 240 239 239 239 240 238 235 230 225 221 221 223 226 229 234 240 246 250 249 247
208 209 209 209 209 209 210 211 211 210 209 209 211 213 213 213 211 209 207 208 210 212 214 216 221 226 229 233 236 239 242 245 249 252 255 256 258 259 259 258 257 255 253 250 247 244 240 239 238 238 239 239 240 239 238 235 231 227 225 226 229 233 238 243 248 251 250 245 239
208 209 210 211 212 213 214 216 216 214 212 210 209 207 204 201 198 194 193 194 196 198 201 207 215 224 231 235 240 244 247 249 252 255 257 258 259 260 260 261 260 258 256 254 251 248 244 242 241 240 241 242 242 242 241 239 237 235 235 237 241 246 251 254 256 252 245 236 230
206 208 210 211 210 210 212 213 211 209 207 205 200 196 193 192 189 188 189 192 194 196 200 205 212 222 231 238 243 248 251 253 254 256 258 260 262 262 263 264 265 267 268 267 264 260 255 251 249 249 248 249 249 249 249 249 248 248 248 251 255 258 259 258 254 246 238 230 228
191 192 193 192 190 190 191 193 194 193 193 193 191 189 188 188 188 189 192 195 199 203 207 211 217 224 233 241 246 251 255 259 260 261 262 266 270 274 280 287 289 287 282 276 271 268 265 264 262 260 258 257 256 256 256 255 255 255 255 256 257 258 256 251 245 237 231 228 232
170 169 168 169 169 169 168 169 172 174 176 179 181 183 185 186 188 191 195 201 205 209 213 217 221 228 235 242 248 254 259 265 269 273 278 293 310 318 315 307 296 287 278 267 261 260 262 262 262 260 259 258 258 258 258 256 254 253 252 252 252 251 247 239 234 229 226 229 233
161 160 160 160 161 160 159 158 157 155 154 155 159 164 169 175 180 186 194 202 207 211 216 221 225 231 237 244 252 259 265 272 283 300 321 342 349 331 309 297 286 272 256 247 248 252 255 257 259 258 256 255 253 253 254 253 250 247 245 244 242 240 236 230 227 226 228 231 234
159 159 159 158 157 156 153 151 149 147 145 145 145 148 154 162 171 181 190 197 205 212 218 222 227 231 235 240 248 258 268 279 334 47 38 349 342 302 277 270 257 247 244 247 247 245 247 252 257 258 257 254 251 249 249 248 244 241 240 237 234 231 228 226 226 228 231 234 236
161 160 159 157 155 154 152 151 151 152 152 153 153 155 159 165 174 183 190 197 207 215 219 221 223 222 221 226 237 250 263 282 95 107 125 153 179 195 208 214 218 233 251 255 245 240 239 244 249 251 251 250 247 246 245 243 238 235 234 233 232 230 229 229 231 234 237 237 236
162 161 160 157 157 158 158 157 158 160 162 163 164 167 170 175 181 188 196 205 212 214 214 215 219 223 225 231 235 235 210 143 138 149 163 177 188 194 196 193 188 200 238 248 241 232 228 231 234 236 238 239 239 240 239 238 235 232 231 233 234 235 235 236 237 237 237 235 231
161 161 160 159 160 162 164 163 164 166 169 171 174 177 181 185 191 197 205 212 213 208 201 201 209 218 224 225 212 189 166 154 158 168 178 184 189 192 190 184 181 192 216 234 235 229 223 222 225 228 230 232 233 233 234 234 234 233 234 236 238 239 237 236 233 230 227 224 219
160 159 158 159 161 164 165 166 168 171 175 178 182 187 192 197 202 208 212 214 212 202 193 196 205 209 205 197 183 171 164 162 166 173 180 183 186 188 187 184 184 191 205 221 232 236 235 234 236 239 241 241 239 236 234 234 234 235 235 238 239 237 234 228 222 216 211 207 204
158 156 155 156 158 161 164 166 169 174 179 183 189 196 203 206 208 210 212 211 207 202 201 203 201 192 181 175 171 167 163 164 170 175 180 183 190 192 193 193 195 200 209 222 236 248 255 257 258 260 261 260 256 251 246 242 240 238 238 237 235 232 226 219 211 204 199 195 194
153 152 151 152 154 157 160 163 167 173 179 184 192 202 207 205 199 199 204 205 204 211 213 203 185 172 165 163 165 164 163 165 170 176 181 189 200 206 211 214 219 226 232 239 246 253 259 262 265 268 269 269 267 264 259 251 244 239 236 234 231 226 219 209 203 196 192 190 190
150 149 149 150 152 155 157 160 164 169 174 178 190 200 200 192 184 188 197 201 206 211 205 190 180 172 166 165 166 165 165 167 175 182 190 200 212 220 227 232 239 244 248 251 254 256 258 260 262 264 266 266 265 263 258 249 240 233 227 223 220 216 209 202 196 191 188 190 192
149 148 148 151 154 157 158 159 162 165 168 174 182 189 189 185 182 185 189 195 195 193 190 187 185 181 177 174 173 171 172 177 186 194 201 209 218 226 233 240 247 254 259 261 262 263 262 259 258 259 260 260 258 253 247 238 229 221 215 212 208 204 200 197 193 191 192 197 201
148 148 149 153 157 159 160 161 161 163 166 170 172 176 180 184 182 180 177 173 171 177 186 190 192 190 187 184 183 184 186 191 199 205 211 218 226 234 241 247 254 260 265 268 269 269 267 263 255 251 250 249 244 238 230 222 215 209 206 203 200 198 195 194 195 198 203 207 207
149 149 151 155 159 161 162 162 162 163 165 167 168 167 168 169 177 175 168 160 160 168 181 191 196 198 198 198 199 200 203 207 212 217 223 229 237 244 250 255 259 262 265 267 268 269 268 265 255 245 237 232 226 220 213 208 203 200 198 197 198 198 199 201 204 210 214 214 207
152 152 155 158 161 163 163 163 163 164 166 168 167 165 164 167 176 178 172 167 167 171 179 190 200 207 211 216 217 217 219 222 226 231 236 241 247 252 255 258 259 259 260 260 261 262 262 258 249 238 227 219 212 206 202 199 196 196 196 198 201 206 211 215 218 218 215 208 198
155 156 159 163 165 165 165 165 166 168 170 171 171 171 173 178 184 184 182 181 181 182 184 192 201 210 219 226 228 229 231 233 236 240 244 249 252 255 257 258 258 257 255 253 253 252 250 245 236 225 215 207 203 200 199 198 198 199 201 205 209 215 220 221 217 208 195 184 175
159 160 163 166 168 169 168 168 169 171 173 176 179 182 186 189 191 192 192 194 195 194 194 195 199 206 217 226 231 234 235 237 240 244 248 253 255 257 259 260 259 257 254 249 243 237 232 225 218 210 203 199 198 199 200 201 203 204 206 207 208 211 211 203 190 174 162 152 146
162 164 166 169 171 172 171 171 171 173 176 179 184 189 193 196 198 199 201 203 205 207 207 206 206 210 217 226 232 236 239 241 243 247 252 257 261 263 263 264 263 259 252 244 231 219 211 206 202 199 196 194 194 195 197 199 201 200 198 195 192 186 177 163 152 143 138 137 138
165 167 169 171 172 173 173 173 173 175 177 181 187 192 197 201 204 207 210 214 220 224 225 222 221 223 226 231 236 240 245 249 252 256 260 264 267 268 267 266 262 253 243 233 222 210 203 199 195 191 187 187 187 187 188 189 188 186 180 172 163 152 142 135 131 131 134 140 146
167 169 170 171 172 173 174 175 175 176 179 184 190 196 202 208 214 219 225 234 243 246 245 239 235 235 235 235 238 244 251 257 262 267 270 271 270 267 263 258 248 238 230 224 211 202 197 195 190 184 180 178 177 176 175 173 171 166 159 151 142 135 130 129 130 135 143 150 153
167 169 170 171 172 173 173 174 175 177 181 187 193 199 206 214 223 231 241 252 259 259 254 248 241 237 235 236 240 246 254 261 268 273 275 272 265 256 248 241 236 235 233 224 203 190 184 182 181 178 174 172 170 166 162 159 155 151 146 142 138 137 137 138 141 146 150 152 152
167 167 169 171 173 172 172 173 175 177 181 187 192 199 209 220 231 242 254 261 260 256 252 246 238 234 234 237 243 250 258 265 273 276 275 266 251 236 229 229 236 245 247 227 194 177 171 169 172 172 170 167 164 159 154 150 148 146 145 144 145 147 147 147 148 148 147 144 142
167 168 170 171 172 172 172 174 174 176 181 189 196 206 216 228 238 251 260 259 252 246 241 236 233 233 237 243 249 256 264 270 273 271 265 251 233 220 219 227 241 253 251 211 178 168 165 164 166 167 165 161 158 155 152 150 149 150 151 152 154 155 154 152 150 147 144 140 139
170 170 171 171 172 174 175 176 175 178 184 192 201 211 222 233 242 248 247 241 235 231 228 228 231 235 240 246 253 260 266 267 265 258 247 231 218 213 218 229 243 250 228 180 167 165 163 162 162 161 160 159 157 155 154 154 154 156 157 160 161 161 158 155 152 148 144 142 142
173 173 173 173 174 177 178 180 181 183 189 197 204 211 220 228 235 232 223 218 219 221 224 229 233 236 240 246 254 260 261 257 251 243 230 216 207 209 217 229 235 217 177 164 164 163 162 161 159 159 160 162 161 160 159 159 159 160 161 163 165 165 162 157 153 149 147 147 146
174 175 175 175 176 179 182 184 186 188 191 197 203 209 214 218 222 221 217 214 217 222 227 230 232 236 241 248 255 257 253 245 236 224 212 201 199 206 215 221 205 172 159 161 163 162 161 160 159 161 164 167 166 164 162 161 160 160 161 161 163 162 160 157 153 150 150 150 150
175 176 176 176 177 179 183 186 186 187 188 194 201 207 211 214 221 225 222 218 221 224 226 228 230 235 240 246 250 249 240 227 212 199 191 189 194 201 206 197 171 157 156 161 162 161 160 159 160 164 169 171 168 165 161 158 155 153 152 151 151 151 150 150 149 149 150 152 152
177 178 179 179 179 181 183 184 183 182 184 191 199 205 209 213 222 227 223 219 222 224 225 226 227 230 234 237 236 229 216 202 190 183 182 186 191 195 190 174 159 155 157 162 162 161 159 160 163 168 172 172 168 163 157 153 149 146 144 144 144 145 145 146 146 146 148 150 153
182 183 184 185 186 186 186 184 183 183 186 191 198 204 208 212 218 220 217 217 219 221 223 224 224 226 228 228 219 207 195 186 180 180 182 186 189 187 177 165 157 157 159 162 162 161 161 163 168 172 173 171 167 163 157 153 150 148 147 147 147 147 148 147 147 147 148 150 153
187 188 188 190 191 191 190 187 187 188 191 194 198 203 208 213 218 219 216 214 215 216 217 218 218 218 216 212 203 193 185 183 182 183 184 185 184 179 169 162 158 158 161 163 163 162 163 166 171 174 173 170 167 164 160 157 155 153 151 151 150 149 148 147 146 145 147 150 153
191 191 191 191 192 193 192 191 191 192 193 195 198 202 207 213 218 218 215 212 211 210 209 208 207 203 198 193 189 186 185 184 184 184 184 183 180 174 167 162 160 161 163 163 163 163 164 167 169 171 170 169 167 165 163 161 159 157 155 153 151 150 148 146 145 144 144 146 150
193 192 191 192 193 194 194 194 194 194 194 196 199 203 206 210 212 212 210 208 207 205 203 200 196 192 188 185 183 183 183 184 184 183 183 181 177 172 167 163 162 163 163 162 162 162 162 163 163 165 167 167 166 166 165 163 161 160 158 156 155 153 152 150 148 146 144 144 145
194 193 193 194 195 195 195 195 195 195 195 196 199 202 205 207 206 206 206 205 202 199 196 193 189 186 183 180 177 175 176 179 182 182 180 178 175 171 167 164 163 163 163 161 160 159 158 157 157 160 163 164 163 163 163 162 162 162 161 160 159 158 158 158 157 154 150 147 145
193 194 195 196 197 197 196 196 197 196 196 196 196 198 200 201 201 202 203 202 199 196 192 189 186 183 181 178 174 171 170 173 177 178 177 174 173 171 168 165 164 163 163 160 158 156 154 152 152 154 157 158 158 158 159 159 159 160 161 162 161 161 163 166 166 163 158 153 149
194 195 197 199 199 199 198 197 197 197 197 195 194 194 195 196 197 199 201 199 197 194 192 189 185 182 180 179 177 174 173 174 175 175 173 171 171 171 170 167 165 165 164 161 158 155 153 151 150 151 153 153 153 155 157 158 156 156 156 157 156 156 158 164 166 165 162 159 154
196 197 199 201 201 201 199 197 197 197 196 195 194 193 193 194 195 197 198 197 196 194 192 189 185 182 181 180 180 179 178 177 176 175 173 171 172 173 173 171 170 169 167 164 161 158 155 153 152 152 153 153 153 156 158 158 155 152 151 150 149 148 148 150 153 156 159 161 159